Location: Ladrillo (historical)
(32.8195°N, 117.2231°W)
Time: 01:55:23
(UTC+00:00)

H-2A R/B - Pass Details

Date: 29 October 2020
Orbit: 500 x 540 km, 97.3° (Epoch: 22 November)

Event Time Altitude Azimuth Distance (km) Brightness Sun altitude
Rises 13:13:00 0° 15° (NNE) 2,655 6.4 -11.4°
Reaches altitude 10° 13:15:07 10° 19° (NNE) 1,770 5.5 -11.0°
Maximum altitude 13:18:55 62° 101° (E) 597 3.3 -10.2°
Drops below altitude 10° 13:22:43 10° 182° (S) 1,779 5.5 -9.4°
Sets 13:24:51 0° 185° (S) 2,670 6.4 -9.0°
